Tracking 31028 objects as of 17-Jul-2025
HD Live streaming from Space Station
objects crossing your sky now

FENGYUN 1C DEB

Track FENGYUN 1C DEB now!
10-day predictions


NORAD ID: 30472
Int'l Code: 1999-025AGK
Perigee: 702.3 km
Apogee: 763.1 km
Inclination: 98.7 °
Period: 99.3 minutes
Semi major axis: 7103 km
RCS: 0.025 m2 (small)
Launch date: May 10, 1999
Source: People's Republic of China (PRC)
Launch site: Taiyaun Space Center, China (TSC)

Note: This is SATELLITE DEBRIS
Your satellite tracking list
Your tracking list is empty




NASA's NSSDC Master Catalog

Two Line Element Set (TLE):
1 30472U 99025AGK 25198.22207981  .00006725  00000-0  17262-2 0  9997
2 30472  98.6510 294.9878 0042743 167.8256 252.1787 14.50029711958867
Source of the keplerian elements: AFSPC